Simultaneous Nadir Overpasses (SNOs) Predictions

Prediction of SNOs between NOAA-19 and NPP Satellite Orbit:

Table of predicted SNOs for the next 14.0 days since TLE Epoch: 2/8/2019
Index Date (NOAA-19) Time (NOAA-19) Lat,Lon (NOAA-19) SZA (NOAA-19 ) Date (NPP) Time (NPP) Lat,Lon (NPP) SZA (NPP ) Distance(km) Time Diff (sec)
1 02/15/2019 18:13:04 -80.23, 45.08 84.42 02/15/2019 18:14:06 -80.23, 45.27 84.47 3.43 62
2 02/15/2019 19:03:58 80.24,-147.44 95.56 02/15/2019 19:04:51 80.22,-147.34 95.51 3.11 53
3 02/15/2019 19:55:04 -80.25, 19.89 84.46 02/15/2019 19:55:36 -80.23, 19.85 84.49 2.21 32
4 02/15/2019 20:45:59 80.24,-172.96 95.54 02/15/2019 20:46:22 80.25,-173.07 95.55 2.34 23
5 02/15/2019 21:37:05 -80.25, -5.63 84.49 02/15/2019 21:37:06 -80.24, -5.57 84.51 1.96 1
6 02/15/2019 22:28:00 80.24, 161.52 95.52 02/15/2019 22:27:52 80.26, 161.51 95.53 1.55 8
7 02/15/2019 23:19:06 -80.25, -31.15 84.51 02/15/2019 23:18:36 -80.24, -30.98 84.52 3.34 30
8 02/16/2019 00:10:01 80.24, 136.00 95.49 02/16/2019 00:09:22 80.26, 136.09 95.51 2.77 39
9 02/16/2019 01:01:07 -80.25, -56.67 84.53 02/16/2019 01:00:07 -80.27, -56.71 84.48 2.58 60




NCC Satellite Simultaneous Nadir Overpasses (SNOs) Prediction Service
